Weather Roundup
Issued by NWS

Home | Current Version | Previous Version | Text Only | Print | Product List | Glossary On
Versions: 1 2 3 4 5 6 7 8 9 10 11 12 13 14 15 16 17 18 19 20 21 22 23 24 25 26 27 28 29 30 31 32 33 34 35 36 37 38 39 40 41 42 43 44 45 46 47 48 49 50
718
NZUS93 KARX 091910
HRRWXR

CURRENT HOURLY OBSERVATIONS ACROSS
MUCH OF THE UPPER MISSISSIPPI VALLEY
NATIONAL WEATHER SERVICE LA CROSSE WI
100 PM CST TUE FEB 09 2016


...SOUTHEAST MINNESOTA...


CITY           SKY/WX    TMP DP  RH WIND       PRES   REMARKS
ROCHESTER      SUNNY     10   1  67 NW23      30.01F WCI -10
ROCHESTER/MAYO FAIR      12   0  60 NW18G26   30.02F WCI  -6
WINONA         SUNNY     14   1  57 NW17G29   30.05S WCI  -3
AUSTIN         SUNNY     10   3  72 NW18G29   30.04F WCI  -8
ALBERT LEA     SUNNY     12   1  62 NW13G23   30.06F WCI  -3
DODGE CENTER   SUNNY     12   1  62 NW22G30   30.02F WCI  -7
PRESTON        SUNNY     10  -1  60 NW18G25   30.00F WCI  -8
OWATONNA       SUNNY     12   1  62 NW18      30.07F WCI  -5
FARIBAULT      SUNNY     14   1  57 NW17G25   30.08F WCI  -3
$$

...ELSEWHERE IN MINNESOTA...


CITY           SKY/WX    TMP DP  RH WIND       PRES   REMARKS
MINNEAPOLIS    SUNNY     15   1  53 NW18G28   30.09F WCI  -2
INTNL FALLS    SUNNY      4  -6  63 N12       30.14F WCI -12
DULUTH         MOSUNNY    7  -5  57 NW17G23   30.00F WCI -12
RED WING       SUNNY     16   0  48 NW10G18   30.06F WCI   3
REDWOOD FALLS  PTSUNNY   17   5  59 NW16G25   30.18F WCI   2
MANKATO        SUNNY     14   3  62 NW17      30.12F WCI  -3
WORTHINGTON    CLOUDY    14   3  62 NW20      30.17F WCI  -3
FAIRMONT       SUNNY     12   3  67 NW20G25   30.13F WCI  -6
$$

...SOUTHWEST WISCONSIN...


CITY           SKY/WX    TMP DP  RH WIND       PRES   REMARKS
LA CROSSE      SUNNY     13   0  56 NW16      30.01F WCI  -3
PRAIRIE DU CHI MOSUNNY   15   1  53 NW13G20   30.00F WCI   1
BOSCOBEL       MOSUNNY   15   1  53 NW13G21   29.98F WCI   1
LONE ROCK      CLOUDY    15   2  56 NW16G22   29.94F WCI  -1
PLATTEVILLE    PTSUNNY   14   6  69 NW15      29.92F WCI  -1
FORT MC COY    MOSUNNY   13   3  62 NW17      29.98S WCI  -3
CAMP DOUGLAS   PTSUNNY   14   3  62 NW20G26   29.92S WCI  -3
VIROQUA        MOCLDY    11   1  63 NW17      29.93F WCI  -6
WIS DELLS      CLOUDY    14   3  61 NW13G23   29.89S WCI  -1
$$

...ELSEWHERE IN WISCONSIN...


CITY           SKY/WX    TMP DP  RH WIND       PRES   REMARKS
MILWAUKEE      PTSUNNY   18   6  59 NW15      29.82S WCI   4
MADISON        CLOUDY    14   3  61 NW14G21   29.87F WCI  -1
GREEN BAY      MIX PCPN  18   8  65 NW17      29.81S WCI   3
EAU CLAIRE     SUNNY     11  -4  51 N8G18     30.01F WCI  -1
BLACK RVR FLS  FAIR      12  -2  52 NW15G21   29.98F WCI  -4
MEDFORD        CLOUDY    11   3  70 NW22      29.87S HAZE    WCI  -8
WAUSAU         LGT SNOW  16   6  65 NW17G28   29.83S WCI   0
WIS RAPIDS     CLOUDY    14   3  61 NW22G31   29.89S WCI  -4
MARSHFIELD     CLOUDY    13   3  64 NW25G32   29.87S WCI  -7
RICE LAKE      SUNNY     11  -1  57 NW8       30.03F WCI  -1
$$

...NORTHEAST IOWA...


CITY           SKY/WX    TMP DP  RH WIND       PRES   REMARKS
WATERLOO       MOSUNNY   11   3  70 NW25G32   30.06F WCI -10
DUBUQUE        MOSUNNY   13   4  67 NW20      29.93F WCI  -5
DECORAH        SUNNY     10  -2  56 N18G26    29.99S WCI  -8
MASON CITY     SUNNY     11   3  70 NW24      30.09F WCI  -9
CHARLES CITY   SUNNY     10   1  67 NW26      30.05F WCI -11
OELWEIN        LGT SNOW   9   1  72 NW22G32   30.02F WCI -11
$$

...ELSEWHERE IN IOWA...


CITY           SKY/WX    TMP DP  RH WIND       PRES   REMARKS
DES MOINES     MOSUNNY   16   5  62 NW26      30.14F WCI  -3
IOWA CITY      PTSUNNY   15   5  64 NW21G32   30.05F WCI  -2
FORT DODGE     SUNNY     14   3  62 N13G23    30.16S WCI   0
MARSHALLTOWN   MOSUNNY   12   3  67 NW23      30.09S WCI  -7
CEDAR RAPIDS   PTSUNNY   12   5  73 NW25G32   30.02F WCI  -8
$$

...NORTHERN ILLINOIS...


CITY           SKY/WX    TMP DP  RH WIND       PRES   REMARKS
CHICAGO-OHARE  CLOUDY    17   7  64 NW16      29.82F WCI   2
CHICAGO-MIDWAY FLURRIES  19   8  62 NW14      29.83F WCI   6
MOLINE         CLOUDY    18   7  62 NW21G30   29.98S WCI   1
ROCKFORD       CLOUDY    17   6  62 NW15      29.89F WCI   2
PEORIA         FLURRIES  18   7  62 NW12G22   29.94F WCI   5
$$

NOTE: "FAIR" INDICATES FEW OR NO CLOUDS BELOW 12,000 FEET WITH NO
SIGNIFICANT WEATHER AND/OR OBSTRUCTIONS TO VISIBILITY. WIND
SPEEDS ARE IN MILES-PER-HOUR.




USA.gov is the U.S. government's official web portal to all federal, state and local government web resources and services.